Flag for Cuba Weather past 2 weeks in Holguín, Cuba

Now
84 °F

Partly sunny.


Feels Like: 88 °F
Forecast: 73 / 90 °F
Wind: 6 mph from Southeast

Location: Holguin Civ / Mil

Current Time: Oct 22, 2014 at 12:00:35 PM

Latest Report: Oct 22, 2014 at 10:50 AM


Visibility: N/A

Pressure: 29.98 "Hg

Humidity: 62%

Dew point: 70 °F

Location of HolguínLocation

Historic Weather in Holguín — Graph

°F

Holguín temperature yesterday

Maximum temperature yesterday: 90 °F (at 1:51 PM)
Minimum temperature yesterday: 70 °F (at 3:50 AM)
Average temperature yesterday: 79 °F

Past Weeks' High & Low Weather Summary

 TemperatureHumidityPressure
High93 °F (Oct 7, 2:51 PM)94% (Oct 9, 4:52 AM)30.04 "Hg (Oct 9, 4:52 AM)
Low68 °F (Oct 19, 6:02 PM)26% (Oct 7, 3:51 PM)29.80 "Hg (Oct 10, 3:54 PM)
Average79 °F76%29.94 "Hg
* Reported Oct 7 9:51 AM — Oct 22 9:50 AM, Holguín, Weather by CustomWeather, © 2014

Note: Actual official high and low records may vary slightly from our data, if they occured in-between our weather recording intervals... More about our weather records

Advertising

Holguín weather history for previous 24 hours

 ConditionsComfort  
Time TempWeatherWind HumidityBarometerVisibility
9:50 AM
Oct 22
81 °FPartly sunny.6 mph74%29.98 "HgN/A
8:50 AM77 °FPartly sunny.2 mph83%29.95 "Hg6 mi
7:50 AM73 °FFog.3 mph89%29.95 "Hg4 mi
6:51 AM70 °FFog.2 mph94%29.92 "Hg3 mi
5:51 AM70 °FFog.5 mph94%29.89 "Hg3 mi
4:50 AM72 °FFog.3 mph88%29.89 "Hg4 mi
3:50 AM72 °FFog.2 mph94%29.89 "Hg4 mi
2:50 AM73 °FPassing clouds.5 mph89%29.89 "Hg5 mi
1:50 AM75 °FPassing clouds.7 mph89%29.89 "Hg5 mi
12:50 AM75 °FPassing clouds.5 mph89%29.92 "Hg5 mi
11:50 PM
Oct 21
75 °FPassing clouds.6 mph89%29.95 "Hg6 mi
10:50 PM77 °FPassing clouds.6 mph83%29.95 "Hg6 mi
9:51 PM75 °FPartly cloudy.7 mph89%29.95 "Hg5 mi
8:51 PM75 °FThundershowers. Partly cloudy.6 mph83%N/A5 mi
7:50 PM77 °FThundershowers. Mostly cloudy.7 mph79%N/A4 mi
6:56 PM79 °FThunderstorms. Mostly cloudy.10 mph74%29.89 "Hg3 mi
6:04 PM88 °FThundershowers. Scattered clouds.3 mph59%29.86 "Hg5 mi
5:51 PM90 °FPassing clouds.2 mph55%29.86 "HgN/A
4:50 PM90 °FScattered clouds.3 mph55%29.86 "HgN/A
3:53 PM90 °FBroken clouds.5 mph55%29.86 "HgN/A
2:51 PM90 °FScattered clouds.5 mph49%29.86 "HgN/A
1:51 PM90 °FScattered clouds.6 mph49%29.89 "HgN/A
12:52 PM88 °FPartly sunny.8 mph55%29.92 "HgN/A
Weather by CustomWeather, © 2014

See weather overviewHow to use our weather pages